GW7022 Weather Reports


time (UTC)temp
F
wind
direction
speed
knots
gust
knots
rain 1hr
in
rain 24hr
in
rain mn
in
humidity
%
barometer
mb
20260502210009 64 32 0.0 0.0 0.00 0.00 0.00 82 1019.4
20260502204508 65 32 0.0 1.7 0.00 0.00 0.00 81 1019.3
20260502203018 65 32 0.0 0.0 0.00 0.00 0.00 81 1019.4
20260502201531 65 32 0.0 1.7 0.00 0.00 0.00 80 1019.3
20260502200023 66 32 0.9 1.7 0.00 0.00 0.00 80 1019.2
20260502194533 66 352 0.0 1.7 0.00 0.00 0.00 79 1019.1
20260502193012 67 25 1.7 3.5 0.00 0.00 0.00 79 1019.0
20260502191512 67 15 0.0 3.5 0.00 0.00 0.00 77 1018.9
20260502190009 67 5 1.7 3.5 0.00 0.00 0.00 78 1018.9
20260502184512 68 352 2.6 4.3 0.00 0.00 0.00 76 1018.8
20260502183012 68 20 2.6 5.2 0.00 0.00 0.00 76 1018.8
20260502181513 70 5 2.6 6.1 0.00 0.00 0.00 73 1019.0
20260502163021 71 349 2.6 6.1 0.00 0.00 0.00 72 1019.0
20260502161513 72 5 4.3 7.0 0.00 0.00 0.00 72 1019.2
20260502151510 74 340 5.2 9.6 0.00 0.00 0.00 69 1019.3
20260502123017 75 19 7.0 13.0 0.00 0.00 0.00 69 1019.9
20260502121519 73 360 8.7 12.2 0.00 0.00 0.00 72 1019.9
20260502114515 74 25 7.8 13.0 0.00 0.00 0.00 70 1020.1
20260502113020 72 21 7.8 12.2 0.00 0.00 0.00 72 1020.2
20260502111521 73 5 7.8 12.2 0.00 0.00 0.00 71 1020.2
20260502110019 73 14 6.1 9.6 0.00 0.00 0.00 73 1020.2
20260502104520 73 350 5.2 11.3 0.00 0.00 0.00 72 1020.0
20260502103017 72 20 7.0 11.3 0.00 0.00 0.00 73 1020.1
20260502101503 72 347 5.2 8.7 0.00 0.00 0.00 72 1020.1
20260502091504 70 44 3.5 7.0 0.00 0.00 0.00 74 1020.1
20260502071520 62 165 2.6 4.3 0.00 0.00 0.00 84 1019.5
20260502070025 62 148 3.5 4.3 0.00 0.00 0.00 84 1019.5
20260502064514 62 173 2.6 5.2 0.00 0.00 0.00 85 1019.3
20260502063014 62 138 1.7 2.6 0.00 0.00 0.00 86 1019.4
20260502061514 62 198 0.9 2.6 0.00 0.00 0.00 84 1019.4
20260502060014 62 189 1.7 2.6 0.00 0.00 0.00 84 1019.5
20260502054524 62 215 1.7 2.6 0.00 0.00 0.00 84 1019.4
20260502053008 63 234 1.7 2.6 0.00 0.00 0.00 84 1019.4
20260502051517 62 234 1.7 2.6 0.00 0.00 0.00 85 1019.3
20260502050020 62 126 0.0 1.7 0.00 0.00 0.00 85 1019.1
20260502044516 62 178 0.9 2.6 0.00 0.00 0.00 85 1018.9
20260502043008 61 177 0.9 3.5 0.00 0.00 0.00 85 1018.8
20260502041512 61 144 2.6 3.5 0.00 0.00 0.00 85 1018.8
20260502040009 61 145 2.6 3.5 0.00 0.00 0.00 85 1018.9
20260502034534 61 171 0.9 1.7 0.00 0.00 0.00 86 1019.0
20260502033022 61 219 0.0 2.6 0.00 0.00 0.00 85 1019.1
20260502031512 62 217 0.9 2.6 0.00 0.00 0.00 86 1019.1
20260502030014 62 221 0.9 1.7 0.00 0.00 0.00 85 1019.1
20260502024518 62 51 0.0 1.7 0.00 0.00 0.00 85 1019.1
20260502021524 62 45 0.0 1.7 0.00 0.00 0.00 84 1019.4
20260502020016 63 45 0.0 1.7 0.00 0.00 0.00 83 1019.5
20260502014544 64 161 0.0 1.7 0.00 0.00 0.00 83 1019.6
20260502013021 64 193 1.7 2.6 0.00 0.00 0.00 82 1019.9
20260502011516 63 188 1.7 2.6 0.00 0.00 0.00 83 1020.2
20260502004514 63 176 1.7 3.5 0.00 0.00 0.00 82 1020.5
20260502003003 63 155 1.7 3.5 0.00 0.00 0.00 82 1020.6
20260502001515 63 169 1.7 3.5 0.00 0.00 0.00 82 1020.9
20260502000032 63 165 0.9 1.7 0.00 0.00 0.00 82 1021.0
20260501234503 64 165 0.9 1.7 0.00 0.00 0.00 81 1021.2
20260501233003 63 168 1.7 3.5 0.00 0.00 0.00 82 1021.1
20260501231516 63 173 1.7 4.3 0.00 0.00 0.00 81 1021.0
20260501230010 63 163 2.6 4.3 0.00 0.00 0.00 81 1020.9
20260501224515 63 171 0.9 2.6 0.00 0.00 0.00 81 1021.1
20260501223010 63 173 2.6 3.5 0.00 0.00 0.00 80 1021.0
20260501221509 63 153 0.0 4.3 0.00 0.00 0.00 80 1020.8
20260501220012 63 148 1.7 4.3 0.00 0.00 0.00 79 1020.7
20260501214513 64 174 2.6 4.3 0.00 0.00 0.00 79 1020.6
20260501213017 63 54 0.0 1.7 0.00 0.00 0.00 81 1020.5
20260501211515 63 54 0.0 1.7 0.00 0.00 0.00 81 1020.4